This is the latest recevied weather packets stored in our database for station/object N5COP-13. If no packets are shown the sender has not sent any weather packets the latest 10 day(s).
| Time | Temp. | Humidity | Pressure | Rain* | Wind** | Luminosity | Snow |
|---|---|---|---|---|---|---|---|
| 1778022276 | 17.78° C | 39% | 1008.6 hPa | 0 mm | - | 243 W/m² | - |
| 1778021972 | 17.78° C | 39% | 1008.8 hPa | 0 mm | - | 200 W/m² | - |
| 1778021669 | 17.78° C | 39% | 1008.8 hPa | 0 mm | - | 251 W/m² | - |
| 1778021365 | 17.78° C | 39% | 1009 hPa | 0 mm | - | 247 W/m² | - |
| 1778021062 | 17.78° C | 39% | 1008.7 hPa | 0 mm | - | 253 W/m² | - |
| 1778020759 | 17.78° C | 39% | 1009 hPa | 0 mm | - | 223 W/m² | - |
| 1778020456 | 17.78° C | 39% | 1009.2 hPa | 0 mm | - | 230 W/m² | - |
| 1778020152 | 17.78° C | 39% | 1008.9 hPa | 0 mm | - | 235 W/m² | - |
| 1778019849 | 17.78° C | 39% | 1009.3 hPa | 0 mm | - | 253 W/m² | - |
| 1778019545 | 17.78° C | 38% | 1009.3 hPa | 0 mm | - | 239 W/m² | - |
| 1778019242 | 18.33° C | 38% | 1009.3 hPa | 0 mm | - | 273 W/m² | - |
| 1778018939 | 18.33° C | 38% | 1009.3 hPa | 0 mm | - | 268 W/m² | - |
| 1778018636 | 18.33° C | 38% | 1009.5 hPa | 0 mm | - | 277 W/m² | - |
| 1778018334 | 18.33° C | 38% | 1009.6 hPa | 0 mm | - | 322 W/m² | - |
| 1778018032 | 17.78° C | 39% | 1009.5 hPa | 0 mm | - | 329 W/m² | - |
| 1778017730 | 18.33° C | 38% | 1009.5 hPa | 0 mm | - | 360 W/m² | - |
| 1778017427 | 18.33° C | 38% | 1009.7 hPa | 0 mm | - | 413 W/m² | - |
| 1778017124 | 18.33° C | 38% | 1009.8 hPa | 0 mm | - | 408 W/m² | - |
| 1778016822 | 18.33° C | 37% | 1009.8 hPa | 0 mm | - | 367 W/m² | - |
| 1778016517 | 18.89° C | 37% | 1010.3 hPa | 0 mm | - | 368 W/m² | - |
| 1778016214 | 18.89° C | 38% | 1010.2 hPa | 0 mm | - | 390 W/m² | - |
| 1778015910 | 18.33° C | 38% | 1010.4 hPa | 0 mm | - | 385 W/m² | - |
| 1778015609 | 18.33° C | 39% | 1010.5 hPa | 0 mm | - | 701 W/m² | - |
| 1778015305 | 17.78° C | 39% | 1010.6 hPa | 0 mm | - | 451 W/m² | - |
| 1778015002 | 17.78° C | 39% | 1010.8 hPa | 0 mm | - | 381 W/m² | - |
* Rain latest hour (hover to see other rain measurements)
** Current wind speed in m/s (hover to see current wind gust speed)